Lapse_Rate
6.8 6.8 6.7 6.3 6.4 6.5 6.6 6.5 6.5 6.2 6.3 6.3 5.6 5.7 5.8 5.9 6.3 6.5 6.6 6.8 7.1 7.1 7.1 7.3 7.0 7.3 7.2 6.9 6.8 7.2 7.0 7.2 7.3 6.8 7.0 6.7 6.4 6.6 6.6 6.5 6.5 6.6 6.6
7.2 7.7 7.0 6.5 6.4 6.4 6.3 6.5 6.5 6.8 6.8 6.7 6.6 6.3 6.0 6.1 6.4 6.3 6.6 6.8 6.9 7.0 7.2 7.2 7.1 7.2 7.1 6.7 6.9 7.3 7.3 7.3 7.3 6.7 6.8 6.7 6.6 6.6 6.6 6.6 6.6 6.5 6.5
6.9 6.7 7.1 6.5 6.6 6.6 6.8 6.7 6.6 6.9 6.9 6.7 6.5 6.7 6.5 6.2 6.3 6.4 6.6 6.3 6.9 6.9 7.0 7.2 7.2 7.2 7.0 6.8 7.3 7.3 7.3 7.3 6.9 7.0 6.7 6.8 6.7 6.8 6.7 6.6 6.5 6.5 6.4
7.2 6.9 6.8 6.6 6.6 6.9 6.8 6.7 6.8 7.0 7.1 7.1 6.8 6.7 6.5 6.4 6.5 6.6 6.9 6.2 6.6 6.8 6.9 7.1 7.2 7.3 7.1 7.1 7.4 7.5 7.3 6.8 6.9 7.1 7.1 7.0 6.9 6.8 6.7 6.6 6.6 6.6 6.6
7.8 7.8 7.8 7.8 7.3 7.0 7.3 6.9 7.2 7.2 7.0 7.2 6.8 6.6 6.6 6.5 6.4 6.6 6.8 6.6 6.3 6.8 6.8 6.9 7.1 7.3 7.0 7.2 7.2 7.3 7.0 6.7 6.7 7.0 7.1 7.1 7.0 6.9 6.8 6.8 6.8 6.7 6.7
7.8 7.9 7.9 8.0 8.1 8.0 7.6 7.7 7.2 7.2 7.2 7.3 7.1 6.9 6.4 6.6 6.5 6.4 6.5 6.4 6.3 6.1 6.5 6.8 6.9 6.8 6.8 6.8 6.8 7.0 7.0 6.8 6.8 7.1 7.2 7.2 7.1 7.1 7.0 7.0 7.0 6.9 6.9
7.8 7.7 7.7 7.7 7.6 7.6 7.4 7.4 7.1 7.4 7.5 7.2 6.9 7.1 6.8 6.6 6.4 6.7 6.8 6.7 6.5 6.4 5.9 5.8 6.6 6.7 6.5 6.6 6.7 6.8 6.8 6.8 6.8 7.0 7.2 7.3 7.3 7.2 7.1 7.1 7.1 7.0 7.0
7.5 7.3 7.3 7.3 7.2 6.9 6.9 7.4 7.5 7.5 7.5 7.2 7.1 7.0 6.9 6.9 6.7 6.8 6.7 6.6 6.6 6.4 6.6 5.9 6.0 6.2 6.3 6.4 6.5 6.7 6.7 6.6 6.7 6.9 7.1 7.3 7.3 7.3 7.2 7.2 7.1 7.1 7.1
7.4 7.2 7.2 7.3 7.3 7.0 7.0 7.0 7.3 7.4 7.3 7.0 7.3 7.2 6.8 6.5 6.5 6.7 6.7 6.5 6.7 6.8 6.7 6.4 6.0 6.0 6.1 6.4 6.4 6.6 6.5 6.5 6.7 6.9 7.2 7.3 7.4 7.4 7.2 7.2 7.2 7.1 7.1
7.1 7.1 7.1 7.3 7.2 7.3 7.0 7.0 7.1 7.2 6.9 7.3 6.7 6.8 6.6 6.6 6.6 6.6 6.7 6.7 6.6 6.9 6.6 6.5 6.2 5.8 5.5 6.1 6.3 6.4 6.3 6.5 6.6 6.8 7.1 7.3 7.3 7.4 7.3 7.2 7.2 7.1 7.1
7.0 7.1 6.9 7.2 7.4 7.3 7.2 7.1 7.0 6.9 6.9 6.9 6.9 6.8 6.6 6.8 6.6 6.4 6.5 6.4 6.5 6.6 6.6 6.4 6.1 5.6 5.7 5.9 6.0 6.0 6.2 6.3 6.5 6.5 6.9 7.2 7.2 7.3 7.2 7.3 7.1 7.0 7.0
7.3 7.3 7.0 7.1 7.2 7.2 7.3 7.3 7.4 7.1 6.8 6.6 6.6 6.5 6.5 6.6 6.5 6.4 6.2 6.2 6.3 6.4 6.4 6.1 5.9 5.0 5.6 5.9 6.0 5.9 6.0 6.2 6.3 6.3 6.6 7.0 7.0 7.1 7.1 7.2 7.1 6.9 6.9
7.2 7.4 7.1 6.9 7.0 7.3 7.2 7.2 7.3 7.2 7.0 6.7 6.7 6.6 6.5 6.5 6.4 6.2 6.0 5.9 6.0 6.0 5.9 5.7 5.4 4.7 5.3 5.6 5.7 5.8 6.0 6.1 6.0 6.1 6.2 6.4 6.7 6.8 7.0 7.0 6.9 6.8 6.7
7.0 7.1 6.8 6.9 7.2 7.3 7.3 7.3 7.4 7.4 7.3 6.9 6.7 6.4 6.3 6.4 6.3 6.1 6.1 5.9 5.8 5.9 5.8 5.8 5.5 5.1 4.9 5.4 5.6 5.8 5.9 6.0 6.0 6.0 6.0 6.2 6.6 6.8 6.8 6.8 6.7 6.6 6.5
6.9 6.9 7.0 7.1 7.1 7.1 7.2 7.3 7.3 7.4 7.3 7.1 6.8 6.5 6.3 6.3 6.1 6.1 6.0 5.8 5.8 5.8 5.8 5.6 5.5 5.1 4.6 5.0 5.0 5.2 5.7 5.9 6.0 5.9 6.1 6.2 6.4 6.6 6.5 6.5 6.4 6.3 6.3
6.7 6.7 6.6 6.2 6.8 6.9 7.1 7.0 7.0 7.2 7.2 7.0 6.8 6.7 6.7 6.5 6.5 6.3 6.1 6.0 6.0 6.0 5.9 5.7 5.5 5.4 5.0 4.8 5.1 5.6 5.8 5.9 5.8 5.9 6.3 6.6 6.4 6.4 6.5 6.5 6.4 6.4 6.3
6.9 6.8 6.8 6.6 6.8 6.5 6.6 6.7 6.7 6.9 6.9 6.8 6.7 6.6 6.4 6.3 6.3 6.4 6.3 6.2 6.1 6.0 6.1 5.9 5.5 5.5 5.2 5.5 5.7 5.8 5.8 5.9 5.9 6.3 6.6 6.7 6.5 6.4 6.4 6.3 6.3 6.2 6.1
7.1 7.1 6.8 6.9 6.9 6.9 6.7 6.3 6.3 6.4 6.5 6.4 6.2 6.3 6.3 6.4 6.4 6.5 6.7 6.7 6.7 6.6 6.4 6.0 5.8 5.6 5.7 5.7 5.7 5.7 5.8 5.9 5.9 6.0 6.3 6.3 6.3 6.3 6.2 6.1 6.0 6.0 5.9
7.1 7.1 7.0 6.9 6.9 7.0 6.8 6.2 6.1 6.2 6.2 6.1 6.2 6.3 6.4 6.4 6.5 6.7 6.9 7.0 6.7 6.4 6.2 6.0 5.8 5.8 5.9 6.0 5.9 5.8 5.8 5.8 5.9 5.9 5.9 5.9 5.9 5.8 5.8 5.8 5.7 5.6 5.6
7.1 7.0 6.9 6.8 6.9 6.9 6.8 6.7 6.3 6.3 6.3 6.1 6.1 6.2 6.3 6.5 6.6 6.7 6.8 6.7 6.6 6.2 6.1 5.9 5.9 5.9 5.8 5.8 5.8 5.8 5.8 5.9 5.9 5.8 5.7 5.6 5.7 5.7 5.7 5.7 5.6 5.6 5.6
7.1 7.0 6.9 6.9 6.9 6.9 6.8 6.6 6.5 6.6 6.6 6.4 6.3 6.3 6.3 6.5 6.5 6.6 6.6 6.5 6.5 6.3 6.2 6.0 6.0 5.9 5.8 5.8 5.7 5.6 5.6 5.7 5.7 5.7 5.6 5.7 5.6 5.6 5.7 5.7 5.7 5.6 5.5
6.9 7.1 7.1 7.1 7.0 7.1 6.9 6.7 6.7 6.6 6.6 6.6 6.5 6.5 6.5 6.5 6.4 6.4 6.5 6.4 6.3 6.1 6.0 5.9 5.8 5.7 5.6 5.6 5.6 5.6 5.7 5.7 5.8 5.8 5.8 5.7 5.6 5.7 5.6 5.6 5.5 5.4 5.4
6.9 7.1 7.2 7.1 7.0 6.8 6.7 6.7 6.6 6.5 6.6 6.5 6.4 6.4 6.4 6.4 6.3 6.3 6.2 6.1 6.0 5.9 5.9 5.8 5.8 5.8 5.8 5.8 5.8 5.8 5.8 5.8 5.7 5.7 5.7 5.6 5.5 5.5 5.4 5.4 5.4 5.4 5.4
6.8 6.9 6.8 6.7 6.6 6.6 6.5 6.4 6.3 6.3 6.2 6.2 6.2 6.2 6.1 6.0 6.0 6.1 6.0 5.9 5.9 5.9 6.0 5.9 6.0 6.1 6.0 6.0 6.0 5.9 5.9 5.8 5.8 5.7 5.6 5.6 5.5 5.4 5.3 5.2 5.2 5.3 5.3
6.6 6.7 6.6 6.6 6.5 6.4 6.4 6.3 6.4 6.3 6.3 6.3 6.2 6.2 6.1 6.1 6.1 6.2 6.2 6.2 6.2 6.3 6.3 6.3 6.2 6.2 6.2 6.2 6.2 6.1 6.1 6.0 5.8 5.7 5.6 5.5 5.3 5.1 5.0 5.1 5.2 5.2 5.2
6.4 6.4 6.4 6.4 6.4 6.4 6.5 6.5 6.4 6.5 6.5 6.4 6.4 6.4 6.4 6.4 6.5 6.5 6.5 6.5 6.5 6.4 6.4 6.3 6.2 6.2 6.1 6.0 6.0 5.9 5.8 5.7 5.6 5.6 5.5 5.5 5.5 5.4 5.3 5.3 5.2 5.2 5.3
Wind_Speed
12 7 6 7 10 11 10 9 10 10 12 12 12 11 10 9 8 7 6 8 8 8 8 8 9 9 8 8 8 8 7 5 6 8 8 10 11 11 13 13 14 11 12
12 10 8 7 7 9 11 12 11 11 11 12 12 11 9 8 8 8 8 8 8 8 9 8 8 7 10 10 9 10 7 6 9 12 11 10 10 12 13 11 9 7 10
8 9 10 11 12 13 13 14 15 13 12 11 12 11 9 9 8 6 7 7 8 8 9 10 9 9 10 9 10 9 7 5 8 9 10 9 8 9 9 9 9 9 9
9 11 13 15 13 12 12 14 15 16 14 14 10 12 11 9 10 11 9 8 8 7 8 8 9 9 10 11 10 11 8 8 8 9 10 9 8 10 8 8 7 6 5
9 12 14 14 12 13 13 15 15 15 16 14 13 12 10 11 8 9 7 9 9 8 7 7 7 4 9 5 8 10 10 9 9 10 10 9 8 9 9 7 6 6 5
8 10 10 11 13 13 14 16 16 16 16 15 14 15 13 7 14 14 11 8 7 10 8 7 7 5 5 5 6 14 4 11 12 9 8 10 10 9 8 8 6 7 6
9 9 9 9 11 12 13 14 15 15 15 14 13 13 12 9 18 16 14 8 8 6 5 8 7 5 7 8 6 8 7 8 6 8 9 8 9 9 9 9 8 7 4
8 7 6 7 9 11 11 11 11 13 13 14 13 13 12 9 17 16 15 9 7 8 8 4 7 7 8 5 8 9 8 6 1 1 3 4 5 9 9 8 7 6 5
6 5 6 7 8 8 10 10 9 10 11 12 11 12 11 10 18 17 15 11 10 9 7 6 7 8 10 11 8 9 7 5 6 8 12 11 11 5 7 7 7 7 6
3 3 4 5 6 9 8 9 9 8 9 8 8 10 12 10 19 20 18 10 10 8 10 9 10 9 14 13 10 10 9 8 9 10 12 14 12 8 3 6 6 6 5
4 2 3 6 6 8 9 8 10 9 8 9 10 9 11 12 17 23 22 12 10 9 9 8 8 13 15 13 8 9 9 10 10 9 8 7 7 9 8 7 7 5 6
3 1 5 6 6 7 10 9 9 9 10 9 9 8 8 12 16 20 21 11 11 9 8 8 8 17 17 14 8 11 16 10 8 7 7 7 7 6 6 8 7 6 3
2 2 1 5 4 7 9 10 8 9 8 8 8 8 9 9 10 21 18 12 12 8 7 9 13 19 17 11 10 13 13 7 7 7 7 7 7 8 10 10 9 9 7
3 3 3 5 5 3 5 6 7 7 7 8 8 7 7 7 6 9 8 8 10 5 7 7 9 10 10 8 9 9 7 7 8 7 7 7 7 7 7 7 7 7 6
4 4 4 4 6 5 4 5 6 6 8 9 8 8 9 9 9 14 13 9 9 9 9 7 8 8 8 8 8 9 8 8 8 7 7 8 8 8 8 8 7 7 7
4 4 3 4 5 4 4 4 4 5 8 7 9 8 7 8 15 18 19 19 17 17 9 8 8 8 10 10 9 9 9 10 9 8 8 8 8 8 8 8 8 8 8
3 3 3 4 4 5 5 5 5 3 8 9 10 11 12 11 18 21 21 19 21 17 8 8 8 8 8 9 9 9 9 9 8 8 9 8 8 8 8 9 9 9 9
3 3 3 4 3 4 4 4 4 6 6 5 8 9 12 14 18 20 19 18 12 10 7 7 7 8 8 9 8 8 8 8 9 9 9 9 9 9 9 9 10 10 10
3 2 2 2 3 3 4 4 4 5 5 5 5 6 10 13 15 16 17 10 10 9 8 9 8 9 8 8 8 8 8 8 8 8 9 9 8 9 10 10 10 13 13
2 3 2 2 2 3 3 4 4 5 5 5 6 7 8 8 7 8 8 8 9 9 9 10 10 9 8 8 7 7 8 8 9 9 9 9 9 9 10 10 10 11 11
2 2 2 2 1 2 2 3 3 4 4 4 4 5 11 10 8 8 9 8 8 9 9 9 8 7 7 7 8 8 9 8 9 9 9 9 9 10 10 10 10 11 11
3 3 3 2 2 1 1 2 2 3 3 3 3 4 9 6 7 8 9 8 8 8 7 8 8 8 8 9 9 8 9 9 9 9 9 9 9 10 10 10 11 11 11
3 3 3 3 3 3 3 3 3 3 3 3 3 4 5 4 4 5 6 6 7 7 5 6 6 6 8 10 12 11 9 9 10 9 10 9 9 9 9 10 11 11 11
6 6 6 5 4 5 5 5 5 6 5 4 4 4 4 4 4 3 3 4 4 4 5 6 6 8 7 10 13 14 13 13 13 13 14 9 10 10 9 10 10 13 11
7 6 6 6 6 6 5 6 6 6 6 5 5 5 5 4 4 3 3 2 1 2 3 3 5 6 10 11 10 13 13 14 14 12 13 12 11 12 10 9 10 10 12
7 7 6 6 6 6 6 6 6 6 6 6 6 6 5 5 5 4 4 4 3 2 2 5 8 8 8 5 7 8 6 6 11 14 14 11 9 10 10 12 15 11 12
Wind_Direction
246 228 224 233 222 212 193 189 170 167 171 174 176 177 173 180 163 172 172 175 175 162 161 172 176 172 169 170 176 169 191 165 144 160 154 172 175 147 149 134 146 132 106
269 252 204 196 219 219 214 187 169 167 170 163 168 175 174 170 158 177 181 180 182 173 170 170 171 178 171 168 172 170 171 158 148 165 165 178 180 154 147 148 137 115 106
241 232 207 194 214 213 207 200 180 172 168 165 162 163 168 169 151 182 196 184 191 193 178 177 167 177 173 170 169 161 165 158 165 165 176 177 167 154 152 144 150 132 108
234 223 225 224 211 192 201 204 187 173 170 167 167 161 167 166 188 178 194 187 196 205 192 181 178 182 175 163 172 158 168 189 175 180 175 170 171 162 165 161 165 168 140
240 234 238 229 220 201 193 205 196 177 173 174 162 161 160 166 183 179 189 194 191 192 197 182 187 161 42 113 171 154 176 196 185 183 177 174 170 172 181 170 165 156 159
250 249 246 234 223 210 194 200 190 180 172 165 165 163 159 167 160 167 186 191 196 188 189 179 161 136 112 67 49 58 120 196 195 189 182 182 177 178 176 173 176 175 169
277 270 254 246 233 219 207 197 186 183 167 161 159 166 153 153 159 160 158 178 185 198 176 193 170 162 169 168 114 97 77 43 350 216 190 189 173 174 170 176 183 187 188
280 280 267 233 218 209 202 190 184 178 173 168 165 164 157 167 173 172 168 180 180 183 191 186 164 172 181 161 168 163 158 172 168 246 163 83 124 168 179 180 173 166 116
279 272 254 224 210 189 202 189 168 169 171 170 155 149 161 169 176 178 177 184 187 181 165 169 177 174 161 150 127 131 134 119 91 78 97 122 128 131 155 168 165 170 172
306 255 209 214 184 191 185 176 159 151 143 138 138 153 166 172 180 175 181 182 182 183 177 175 176 170 165 169 162 157 160 150 137 126 123 122 137 129 111 186 171 192 171
313 227 177 191 181 183 165 155 153 147 145 153 152 160 167 187 178 177 192 193 190 184 180 177 173 170 170 176 182 176 168 153 148 147 147 150 155 160 168 181 181 205 183
317 234 178 170 163 162 161 158 155 145 153 152 152 160 176 191 172 182 192 209 177 178 176 180 173 173 177 173 184 116 141 159 165 168 171 170 177 175 163 173 160 174 108
309 75 99 142 168 165 166 162 159 159 160 160 160 166 178 183 171 176 183 182 171 171 172 173 161 173 180 173 175 155 164 177 176 182 188 186 190 183 168 175 177 176 172
177 170 158 136 130 145 157 164 160 163 161 163 167 172 168 167 169 173 180 174 167 130 136 146 161 166 172 173 166 176 188 189 191 196 198 194 186 181 188 183 187 190 195
182 176 172 177 177 155 160 169 170 178 175 171 180 172 169 183 191 181 177 172 173 164 148 146 159 172 178 187 191 191 198 196 201 204 202 197 194 195 201 195 201 200 209
211 188 173 173 177 174 162 148 141 160 172 161 154 169 178 168 168 180 182 177 165 152 164 173 182 189 195 194 198 198 199 200 203 205 203 205 202 204 205 206 204 217 217
189 198 181 189 177 172 176 178 172 149 178 177 177 171 177 170 175 183 185 173 162 160 182 188 193 192 197 203 201 202 204 203 202 207 205 208 208 209 207 210 210 218 223
127 144 184 183 185 171 180 186 173 174 177 177 191 182 173 173 177 185 184 165 162 182 193 190 194 195 201 204 204 204 206 196 202 210 210 209 208 211 211 216 219 216 224
178 154 168 172 180 189 176 175 180 178 185 174 154 176 174 176 184 187 185 186 175 187 200 201 202 203 204 205 208 206 205 203 200 207 214 211 208 212 219 221 223 223 221
152 140 151 153 170 194 196 192 191 194 192 181 182 185 169 167 181 181 179 183 178 193 200 207 206 206 207 204 202 200 201 205 206 210 215 213 211 211 221 222 220 222 220
144 137 133 136 169 192 203 205 198 190 191 192 191 174 175 182 176 173 177 188 189 197 199 208 208 206 204 206 211 204 211 210 211 210 216 216 214 215 219 222 222 222 230
145 139 138 134 150 164 174 184 181 181 176 172 148 153 167 184 175 175 184 193 199 205 206 206 212 209 210 212 211 210 212 212 214 212 214 216 217 218 221 223 225 225 223
118 117 118 104 92 107 109 96 102 111 114 122 132 146 165 177 164 176 185 181 193 199 206 205 206 210 209 212 213 215 217 218 217 214 214 215 217 221 219 224 226 227 226
104 101 95 89 81 90 85 82 84 78 88 96 102 107 118 122 128 133 143 164 182 193 193 200 207 215 219 212 212 218 224 228 224 219 216 218 217 216 220 225 227 228 233
93 90 86 85 81 82 78 75 73 70 69 67 69 72 80 87 100 93 111 135 177 193 218 218 229 231 228 235 227 216 225 224 229 230 222 223 227 221 219 223 230 230 231
80 82 85 87 86 81 80 81 74 68 67 64 62 60 58 62 60 56 48 42 28 29 35 56 52 37 22 26 30 3 347 263 238 234 235 234 227 228 224 221 223 227 229